QPF
0.08 0.06 0.04 0.04 0.03 0.04 0.04 0.05 0.07 0.07 0.05 0.04 0.05 0.05 0.05 0.07 0.07 0.06 0.04 0.04 0.03 0.02 0.02 0.01 0.01 0.01 0.01 0.01 0.01 0.01 0.01 0.01 0.01 0.01 0.01 0.01 0.02 0.02
0.06 0.06 0.05 0.04 0.04 0.04 0.04 0.04 0.05 0.06 0.06 0.04 0.03 0.04 0.05 0.05 0.08 0.07 0.05 0.04 0.03 0.02 0.02 0.01 0.01 0.02 0.02 0.01 0.01 0.01 0.01 0.01 0.01 0.01 0.01 0.01 0.01 0.01
0.05 0.05 0.04 0.03 0.04 0.05 0.05 0.05 0.04 0.05 0.05 0.04 0.03 0.03 0.04 0.05 0.06 0.08 0.07 0.04 0.03 0.02 0.02 0.02 0.02 0.02 0.03 0.02 0.01 0.01 0.01 0.01 0.01 0.01 0.01 0.01 0.01 0.01
0.04 0.05 0.04 0.03 0.02 0.02 0.03 0.04 0.04 0.04 0.05 0.05 0.04 0.03 0.04 0.05 0.05 0.06 0.07 0.07 0.04 0.02 0.02 0.01 0.01 0.02 0.02 0.02 0.02 0.01 0.01 0.01 0.01 0.01 0.01 0.01 0.01 0.02
0.03 0.04 0.04 0.04 0.03 0.02 0.02 0.02 0.02 0.02 0.03 0.05 0.05 0.04 0.04 0.05 0.05 0.05 0.06 0.07 0.06 0.04 0.02 0.01 0.01 0.01 0.01 0.01 0.01 0.01 0.01 0.01 0.01 0.01 0.01 0.01 0.01 0.01
0.03 0.03 0.04 0.04 0.04 0.03 0.02 0.02 0.02 0.03 0.03 0.03 0.05 0.05 0.05 0.05 0.05 0.05 0.05 0.07 0.07 0.05 0.03 0.02 0.01 0.01 0.01 0.01 0.02 0.02 0.01 0.01 0.01 0.01 0.01 0.01 0.01 0.01
0.03 0.04 0.04 0.04 0.05 0.04 0.03 0.02 0.03 0.03 0.04 0.04 0.04 0.05 0.05 0.05 0.05 0.05 0.05 0.06 0.06 0.06 0.04 0.03 0.02 0.02 0.02 0.02 0.02 0.02 0.01 0.01 0.01 0.01 0.01 0.01 0.01 0.01
0.03 0.03 0.04 0.05 0.05 0.06 0.06 0.04 0.03 0.03 0.04 0.04 0.04 0.04 0.04 0.04 0.04 0.05 0.05 0.05 0.05 0.05 0.05 0.03 0.03 0.02 0.02 0.02 0.02 0.02 0.02 0.02 0.02 0.02 0.02 0.01 0.01 0.02
0.05 0.04 0.04 0.04 0.05 0.04 0.05 0.06 0.04 0.03 0.03 0.03 0.03 0.03 0.03 0.03 0.04 0.04 0.04 0.04 0.04 0.04 0.04 0.04 0.03 0.02 0.02 0.01 0.01 0.01 0.01 0.02 0.01 0.01 0.02 0.02 0.01 0.01
0.05 0.04 0.04 0.04 0.04 0.04 0.04 0.04 0.05 0.03 0.02 0.02 0.02 0.03 0.03 0.03 0.04 0.04 0.04 0.04 0.04 0.04 0.04 0.03 0.02 0.02 0.01 0.01 0.01 0.01 0.01 0.01 0.01 0.01 0.01 0.01 0.02 0.01
0.05 0.04 0.04 0.04 0.04 0.04 0.04 0.04 0.04 0.04 0.04 0.02 0.02 0.02 0.03 0.04 0.05 0.05 0.05 0.05 0.04 0.03 0.03 0.02 0.01 0.01 0.01 0.01 0.01 0.01 0.01 0.02 0.02 0.02 0.01 0.01 0.01 0.02
0.04 0.04 0.04 0.04 0.04 0.03 0.03 0.03 0.03 0.03 0.03 0.03 0.02 0.02 0.02 0.04 0.05 0.05 0.05 0.05 0.04 0.03 0.02 0.02 0.02 0.02 0.02 0.01 0.01 0.01 0.01 0.02 0.02 0.02 0.02 0.02 0.02 0.02
0.03 0.04 0.03 0.04 0.04 0.03 0.03 0.02 0.02 0.02 0.02 0.02 0.02 0.02 0.02 0.02 0.03 0.03 0.03 0.03 0.03 0.03 0.02 0.03 0.03 0.02 0.02 0.02 0.01 0.01 0.01 0.01 0.02 0.02 0.02 0.02 0.02 0.01
0.03 0.03 0.03 0.03 0.03 0.04 0.03 0.03 0.02 0.02 0.02 0.02 0.02 0.02 0.01 0.01 0.01 0.01 0.02 0.02 0.02 0.02 0.02 0.02 0.03 0.03 0.03 0.02 0.01 0.01 0.01 0.01 0.01 0.01 0.01 0.02 0.02 0.02
0.03 0.03 0.03 0.04 0.04 0.04 0.03 0.03 0.02 0.02 0.02 0.02 0.01 0.01 0.01 0.01 0.01 0.01 0.01 0.02 0.02 0.01 0.01 0.02 0.02 0.02 0.02 0.02 0.01 0.01 0.01 0.01 0.01 0.01 0.01 0.01 0.01 0.01
0.03 0.03 0.03 0.03 0.03 0.03 0.03 0.02 0.02 0.02 0.01 0.01 0.01 0.01 0.01 0.01 0.01 0.01 0.02 0.02 0.02 0.02 0.01 0.02 0.02 0.02 0.02 0.02 0.02 0.01 0.01 0.01 0.01 0.01 0.01 0.01 0.01 0.01
0.03 0.03 0.03 0.02 0.02 0.02 0.02 0.02 0.01 0.01 0.01 0.01 0.01 0.01 0.01 0.01 0.01 0.01 0.01 0.02 0.02 0.02 0.01 0.01 0.01 0.02 0.02 0.02 0.02 0.02 0.01 0.01 0.01 0.01 0.02 0.02 0.02 0.01
0.03 0.03 0.02 0.02 0.02 0.01 0.02 0.02 0.01 0.01 0.01 0.01 0.01 0.01 0.01 0.01 0.01 0.01 0.01 0.02 0.02 0.01 0.01 0.01 0.01 0.02 0.03 0.03 0.02 0.02 0.01 0.01 0.01 0.02 0.02 0.03 0.02 0.01
0.03 0.03 0.02 0.02 0.02 0.02 0.02 0.02 0.01 0.01 0.01 0.01 0.01 0.01 0.01 0.01 0.01 0.01 0.01 0.02 0.02 0.02 0.02 0.01 0.02 0.02 0.03 0.02 0.01 0.01 0.01 0.01 0.01 0.02 0.03 0.03 0.02 0.01
0.02 0.02 0.02 0.02 0.02 0.02 0.01 0.01 0.01 0.01 0.01 0.01 0.01 0.01 0.02 0.02 0.02 0.02 0.02 0.02 0.01 0.01 0.01 0.02 0.02 0.02 0.02 0.02 0.01 0.01 0.01 0.01 0.01 0.02 0.02 0.02 0.02 0.02
0.02 0.01 0.01 0.02 0.02 0.02 0.01 0.01 0.01 0.01 0.01 0.01 0.01 0.01 0.01 0.02 0.02 0.02 0.02 0.02 0.03 0.02 0.02 0.01 0.01 0.02 0.02 0.03 0.03 0.02 0.02 0.02 0.01 0.01 0.02 0.02 0.03 0.03
0.02 0.02 0.01 0.01 0.02 0.02 0.02 0.02 0.01 0.01 0.01 0.01 0.01 0.01 0.01 0.01 0.01 0.01 0.02 0.02 0.02 0.02 0.02 0.02 0.02 0.03 0.03 0.03 0.03 0.02 0.02 0.02 0.02 0.02 0.02 0.02 0.03 0.03
0.02 0.02 0.01 0.01 0.01 0.02 0.02 0.02 0.01 0.01 0.01 0.01 0.01 0.01 0.01 0.01 0.01 0.01 0.01 0.02 0.02 0.02 0.02 0.03 0.03 0.03 0.02 0.02 0.03 0.02 0.02 0.02 0.02 0.02 0.02 0.02 0.02 0.02
MSLP
1028.64 1028.90 1029.14 1029.33 1029.48 1029.57 1029.60 1029.60 1029.57 1029.52 1029.47 1029.42 1029.39 1029.36 1029.33 1029.30 1029.25 1029.19 1029.11 1029.02 1028.92 1028.82 1028.74 1028.69 1028.68 1028.71 1028.80 1028.93 1029.11 1029.31 1029.53 1029.74 1029.93 1030.08 1030.17 1030.20 1030.16 1030.07
1028.32 1028.58 1028.80 1028.99 1029.12 1029.21 1029.25 1029.27 1029.27 1029.27 1029.27 1029.28 1029.30 1029.32 1029.34 1029.34 1029.32 1029.27 1029.21 1029.13 1029.04 1028.96 1028.89 1028.84 1028.83 1028.86 1028.92 1029.03 1029.18 1029.35 1029.55 1029.74 1029.94 1030.10 1030.22 1030.28 1030.28 1030.23
1027.99 1028.22 1028.43 1028.60 1028.74 1028.83 1028.90 1028.95 1029.01 1029.06 1029.13 1029.21 1029.28 1029.35 1029.40 1029.43 1029.43 1029.40 1029.35 1029.28 1029.21 1029.14 1029.08 1029.04 1029.03 1029.04 1029.08 1029.15 1029.26 1029.40 1029.56 1029.74 1029.92 1030.09 1030.23 1030.33 1030.38 1030.37
1027.70 1027.90 1028.08 1028.25 1028.38 1028.49 1028.59 1028.70 1028.80 1028.92 1029.05 1029.18 1029.31 1029.42 1029.49 1029.54 1029.55 1029.53 1029.48 1029.43 1029.37 1029.32 1029.27 1029.24 1029.23 1029.23 1029.25 1029.30 1029.36 1029.46 1029.58 1029.73 1029.90 1030.08 1030.24 1030.38 1030.47 1030.52
1027.48 1027.65 1027.81 1027.96 1028.10 1028.23 1028.36 1028.50 1028.66 1028.83 1029.00 1029.18 1029.33 1029.46 1029.54 1029.59 1029.60 1029.59 1029.55 1029.51 1029.47 1029.45 1029.43 1029.42 1029.42 1029.43 1029.43 1029.45 1029.49 1029.55 1029.63 1029.76 1029.91 1030.09 1030.27 1030.44 1030.58 1030.67
1027.37 1027.50 1027.64 1027.78 1027.91 1028.05 1028.19 1028.36 1028.54 1028.74 1028.94 1029.13 1029.29 1029.42 1029.50 1029.54 1029.55 1029.54 1029.52 1029.50 1029.50 1029.51 1029.54 1029.56 1029.59 1029.61 1029.62 1029.63 1029.65 1029.68 1029.74 1029.84 1029.98 1030.15 1030.34 1030.54 1030.71 1030.85
1027.37 1027.47 1027.58 1027.69 1027.80 1027.93 1028.07 1028.24 1028.43 1028.62 1028.82 1029.00 1029.15 1029.26 1029.33 1029.37 1029.38 1029.37 1029.38 1029.40 1029.44 1029.51 1029.59 1029.67 1029.74 1029.80 1029.83 1029.85 1029.85 1029.87 1029.91 1030.00 1030.12 1030.29 1030.49 1030.70 1030.90 1031.07
1027.49 1027.54 1027.60 1027.67 1027.76 1027.86 1027.98 1028.13 1028.29 1028.47 1028.64 1028.80 1028.92 1029.01 1029.07 1029.10 1029.11 1029.13 1029.17 1029.24 1029.34 1029.47 1029.62 1029.77 1029.90 1030.00 1030.07 1030.10 1030.12 1030.14 1030.18 1030.25 1030.37 1030.53 1030.73 1030.94 1031.16 1031.35
1027.69 1027.69 1027.71 1027.73 1027.77 1027.83 1027.92 1028.03 1028.16 1028.30 1028.44 1028.56 1028.66 1028.73 1028.78 1028.80 1028.83 1028.88 1028.96 1029.09 1029.25 1029.45 1029.66 1029.88 1030.07 1030.22 1030.33 1030.40 1030.45 1030.48 1030.52 1030.60 1030.71 1030.86 1031.06 1031.27 1031.49 1031.68
1027.95 1027.91 1027.88 1027.86 1027.86 1027.88 1027.92 1027.99 1028.08 1028.19 1028.29 1028.39 1028.46 1028.52 1028.56 1028.60 1028.65 1028.73 1028.85 1029.02 1029.24 1029.49 1029.76 1030.02 1030.27 1030.47 1030.62 1030.73 1030.81 1030.87 1030.93 1031.01 1031.13 1031.28 1031.46 1031.67 1031.87 1032.05
1028.27 1028.20 1028.13 1028.08 1028.04 1028.03 1028.04 1028.08 1028.14 1028.22 1028.30 1028.37 1028.44 1028.49 1028.54 1028.59 1028.65 1028.75 1028.90 1029.10 1029.34 1029.62 1029.91 1030.21 1030.48 1030.72 1030.91 1031.06 1031.17 1031.26 1031.35 1031.45 1031.58 1031.74 1031.91 1032.10 1032.28 1032.44
1028.63 1028.55 1028.47 1028.40 1028.36 1028.33 1028.33 1028.35 1028.40 1028.46 1028.53 1028.60 1028.66 1028.72 1028.77 1028.82 1028.89 1029.00 1029.14 1029.33 1029.57 1029.84 1030.13 1030.42 1030.70 1030.95 1031.17 1031.34 1031.49 1031.62 1031.75 1031.88 1032.02 1032.18 1032.36 1032.53 1032.68 1032.81
1029.03 1028.96 1028.90 1028.86 1028.82 1028.81 1028.81 1028.84 1028.90 1028.96 1029.03 1029.10 1029.16 1029.22 1029.26 1029.31 1029.37 1029.45 1029.57 1029.72 1029.91 1030.14 1030.38 1030.64 1030.90 1031.15 1031.37 1031.57 1031.75 1031.92 1032.09 1032.25 1032.42 1032.59 1032.76 1032.91 1033.04 1033.13
1029.45 1029.43 1029.42 1029.41 1029.42 1029.44 1029.47 1029.53 1029.59 1029.67 1029.75 1029.83 1029.90 1029.94 1029.98 1030.01 1030.03 1030.07 1030.12 1030.21 1030.33 1030.48 1030.66 1030.86 1031.08 1031.30 1031.52 1031.74 1031.95 1032.15 1032.36 1032.55 1032.75 1032.93 1033.09 1033.22 1033.32 1033.36
1029.86 1029.91 1029.96 1030.02 1030.08 1030.15 1030.23 1030.31 1030.41 1030.51 1030.61 1030.69 1030.76 1030.80 1030.82 1030.81 1030.79 1030.77 1030.76 1030.76 1030.79 1030.85 1030.95 1031.09 1031.25 1031.44 1031.65 1031.87 1032.10 1032.34 1032.57 1032.79 1033.00 1033.19 1033.34 1033.45 1033.50 1033.51
1030.22 1030.34 1030.47 1030.60 1030.72 1030.84 1030.97 1031.09 1031.22 1031.35 1031.46 1031.56 1031.62 1031.66 1031.66 1031.63 1031.56 1031.48 1031.40 1031.32 1031.27 1031.25 1031.27 1031.34 1031.46 1031.61 1031.81 1032.03 1032.27 1032.51 1032.76 1032.99 1033.20 1033.37 1033.50 1033.57 1033.59 1033.55
1030.46 1030.66 1030.85 1031.04 1031.22 1031.39 1031.56 1031.73 1031.88 1032.04 1032.17 1032.28 1032.37 1032.40 1032.40 1032.35 1032.26 1032.14 1032.01 1031.88 1031.77 1031.69 1031.66 1031.67 1031.75 1031.87 1032.05 1032.26 1032.49 1032.73 1032.97 1033.18 1033.36 1033.50 1033.58 1033.61 1033.57 1033.48
1030.54 1030.79 1031.03 1031.26 1031.49 1031.70 1031.90 1032.10 1032.29 1032.47 1032.63 1032.78 1032.88 1032.94 1032.96 1032.92 1032.83 1032.71 1032.57 1032.42 1032.29 1032.18 1032.12 1032.12 1032.16 1032.27 1032.42 1032.61 1032.81 1033.02 1033.22 1033.38 1033.50 1033.58 1033.59 1033.54 1033.44 1033.29
1030.43 1030.70 1030.97 1031.22 1031.47 1031.70 1031.93 1032.15 1032.38 1032.59 1032.80 1032.98 1033.14 1033.24 1033.30 1033.31 1033.27 1033.18 1033.07 1032.95 1032.83 1032.74 1032.68 1032.67 1032.71 1032.80 1032.92 1033.07 1033.23 1033.38 1033.50 1033.59 1033.63 1033.61 1033.53 1033.40 1033.22 1033.01
1030.13 1030.39 1030.66 1030.91 1031.16 1031.40 1031.65 1031.90 1032.16 1032.42 1032.67 1032.92 1033.13 1033.31 1033.45 1033.53 1033.56 1033.55 1033.50 1033.44 1033.38 1033.32 1033.30 1033.30 1033.34 1033.41 1033.51 1033.61 1033.71 1033.78 1033.81 1033.79 1033.72 1033.59 1033.41 1033.18 1032.92 1032.64
1029.65 1029.89 1030.13 1030.37 1030.61 1030.86 1031.12 1031.39 1031.69 1031.99 1032.30 1032.62 1032.91 1033.17 1033.40 1033.58 1033.71 1033.79 1033.84 1033.86 1033.87 1033.88 1033.89 1033.93 1033.98 1034.04 1034.10 1034.15 1034.17 1034.15 1034.08 1033.96 1033.77 1033.53 1033.25 1032.92 1032.58 1032.23
1029.05 1029.24 1029.45 1029.66 1029.89 1030.14 1030.41 1030.70 1031.03 1031.38 1031.76 1032.13 1032.51 1032.86 1033.18 1033.46 1033.69 1033.88 1034.03 1034.14 1034.23 1034.31 1034.38 1034.44 1034.51 1034.56 1034.59 1034.59 1034.55 1034.45 1034.29 1034.06 1033.78 1033.44 1033.06 1032.66 1032.25 1031.84
1028.35 1028.50 1028.67 1028.86 1029.08 1029.32 1029.60 1029.92 1030.27 1030.66 1031.08 1031.52 1031.96 1032.39 1032.79 1033.16 1033.49 1033.77 1034.02 1034.22 1034.39 1034.53 1034.65 1034.75 1034.84 1034.89 1034.90 1034.87 1034.78 1034.62 1034.40 1034.11 1033.75 1033.35 1032.90 1032.44 1031.98 1031.54
Thickness
5467 5468 5469 5471 5471 5473 5474 5476 5475 5476 5478 5479 5479 5481 5481 5482 5483 5483 5483 5483 5483 5483 5485 5485 5484 5484 5485 5484 5485 5485 5485 5486 5486 5487 5488 5489 5491 5493
5454 5455 5456 5457 5458 5459 5461 5462 5463 5464 5464 5466 5466 5466 5467 5467 5468 5469 5469 5470 5470 5470 5471 5471 5471 5471 5471 5471 5471 5471 5471 5472 5472 5473 5474 5475 5477 5479
5440 5442 5443 5443 5444 5445 5447 5448 5449 5449 5448 5449 5451 5452 5453 5454 5454 5455 5456 5457 5456 5457 5457 5458 5458 5458 5458 5458 5458 5458 5458 5458 5459 5460 5461 5462 5463 5466
5428 5429 5429 5430 5431 5432 5433 5434 5435 5435 5435 5435 5436 5437 5439 5440 5440 5441 5442 5443 5443 5444 5444 5444 5444 5444 5444 5444 5444 5444 5444 5444 5445 5447 5448 5449 5450 5451
5416 5417 5417 5418 5418 5419 5419 5420 5420 5421 5422 5423 5423 5424 5424 5425 5426 5427 5428 5429 5430 5430 5430 5430 5430 5430 5429 5429 5430 5430 5431 5431 5432 5433 5434 5434 5435 5437
5404 5405 5406 5407 5408 5408 5408 5408 5408 5407 5408 5410 5411 5410 5411 5412 5413 5413 5414 5414 5416 5417 5417 5416 5416 5416 5416 5416 5416 5416 5416 5417 5417 5418 5419 5420 5421 5423
5393 5393 5395 5395 5397 5397 5398 5397 5397 5396 5396 5396 5397 5397 5398 5399 5399 5400 5400 5401 5402 5403 5404 5403 5403 5403 5402 5402 5401 5402 5402 5402 5403 5404 5404 5406 5407 5409
5381 5382 5383 5384 5384 5386 5386 5386 5386 5385 5384 5383 5384 5385 5385 5386 5386 5386 5386 5387 5389 5389 5389 5389 5389 5388 5388 5388 5388 5388 5388 5389 5389 5389 5390 5391 5392 5394
5368 5369 5370 5371 5372 5371 5372 5372 5373 5374 5375 5374 5372 5373 5373 5374 5374 5374 5373 5374 5375 5375 5374 5376 5375 5375 5375 5375 5375 5375 5375 5376 5376 5376 5376 5377 5379 5381
5355 5356 5356 5357 5357 5358 5358 5359 5359 5360 5361 5362 5362 5363 5362 5361 5361 5361 5360 5360 5361 5360 5359 5360 5362 5362 5362 5362 5362 5362 5362 5362 5363 5363 5364 5364 5365 5367
5342 5343 5343 5344 5345 5346 5346 5346 5346 5346 5346 5347 5349 5349 5349 5349 5348 5347 5346 5347 5347 5347 5346 5346 5348 5347 5349 5350 5349 5349 5349 5349 5349 5350 5351 5351 5352 5354
5329 5329 5330 5332 5333 5334 5333 5333 5332 5333 5333 5333 5334 5335 5336 5335 5336 5335 5335 5333 5333 5333 5333 5332 5332 5331 5333 5336 5336 5335 5335 5335 5336 5336 5337 5338 5339 5341
5316 5316 5317 5318 5320 5321 5321 5320 5320 5320 5320 5320 5320 5320 5321 5321 5321 5321 5321 5320 5320 5320 5319 5317 5317 5316 5316 5319 5322 5321 5321 5322 5322 5323 5324 5325 5326 5328
5303 5303 5303 5304 5306 5307 5307 5307 5307 5307 5306 5306 5306 5306 5306 5307 5307 5307 5306 5306 5306 5307 5305 5303 5303 5302 5301 5303 5306 5308 5308 5308 5309 5310 5312 5312 5313 5314
5290 5290 5290 5290 5291 5292 5292 5292 5292 5291 5290 5291 5292 5292 5292 5293 5293 5292 5292 5292 5292 5291 5291 5290 5289 5289 5289 5290 5292 5293 5294 5295 5296 5298 5299 5300 5301 5303
5275 5276 5276 5276 5276 5277 5276 5276 5275 5275 5275 5275 5276 5276 5276 5277 5277 5277 5277 5277 5277 5277 5277 5276 5276 5276 5276 5277 5278 5280 5280 5281 5284 5284 5286 5288 5289 5291
5262 5261 5261 5260 5260 5260 5260 5260 5259 5259 5259 5259 5260 5260 5260 5261 5262 5262 5262 5262 5262 5262 5263 5262 5262 5262 5262 5263 5264 5266 5267 5268 5270 5271 5273 5275 5278 5280
5249 5247 5246 5246 5246 5246 5246 5245 5244 5244 5244 5244 5244 5245 5245 5245 5246 5246 5246 5246 5247 5248 5248 5248 5247 5247 5247 5250 5252 5252 5253 5255 5257 5258 5259 5262 5267 5270
5234 5233 5232 5232 5232 5231 5231 5231 5230 5229 5229 5229 5229 5229 5229 5229 5230 5231 5231 5231 5231 5232 5233 5232 5232 5231 5232 5236 5240 5239 5240 5242 5243 5245 5247 5250 5254 5258
5220 5219 5219 5219 5218 5218 5217 5216 5216 5215 5214 5214 5214 5214 5214 5215 5215 5216 5216 5216 5217 5218 5219 5219 5219 5219 5220 5222 5224 5227 5228 5229 5231 5233 5236 5239 5242 5246
5206 5206 5206 5205 5205 5204 5204 5203 5202 5202 5201 5201 5201 5200 5200 5200 5200 5201 5201 5203 5204 5204 5206 5208 5208 5208 5208 5208 5210 5214 5217 5218 5220 5221 5224 5226 5229 5233
5193 5193 5192 5192 5192 5192 5191 5190 5190 5189 5189 5188 5188 5187 5187 5187 5187 5187 5188 5189 5191 5192 5193 5195 5195 5196 5196 5197 5199 5202 5205 5207 5209 5211 5213 5215 5217 5221
5180 5180 5180 5180 5180 5180 5179 5179 5178 5177 5177 5176 5176 5175 5175 5175 5176 5176 5176 5177 5178 5180 5181 5182 5183 5184 5185 5187 5188 5190 5193 5195 5198 5202 5205 5207 5210 5213